Regional Weather Roundup
Issued by NWS Northern Indiana

Home | Current Version | Previous Version | Graphics & Text | Print | Product List | Glossary On
Versions: 1 2 3 4 5 6 7 8 9 10 11 12 13 14 15 16 17 18 19 20 21 22 23 24 25 26 27 28 29 30 31 32 33 34 35 36 37 38 39 40 41 42 43 44 45 46 47 48 49 50
000
ASUS43 KIWX 262210
RWRIWX

KIWX WEATHER ROUNDUP
NATIONAL WEATHER SERVICE NORTHERN INDIANA
600 PM EDT FRI AUG 26 2016

NOTE: "FAIR" INDICATES FEW OR NO CLOUDS BELOW 12,000 FEET WITH NO
SIGNIFICANT WEATHER AND/OR OBSTRUCTIONS TO VISIBILITY.

* THESE STATIONS ARE NOT UNDER NWS QUALITY CONTROL. THEY ALSO MAY NOT
  REPORT WEATHER SUCH AS PRECIPITATION OR FOG.

INZ001>027-262300-
NORTHERN INDIANA

CITY           SKY/WX    TMP DP  RH WIND       PRES   REMARKS
VALPARAISO     CLOUDY    75  67  76 N5        30.13R
MICHIGAN CITY* CLOUDY    73  64  73 CALM      30.13S
LAPORTE*       CLOUDY    78  71  78 N7        30.13S
KNOX*          PTSUNNY   77  45  31 NE3       30.12R
SOUTH BEND     CLOUDY    80  65  59 CALM      30.12S
ELKHART*       CLOUDY    81  63  54 NE3       30.13R
GOSHEN         CLOUDY    80  64  58 NE5       30.12S
MONTICELLO*    CLOUDY    80  69  69 CALM      30.09F
LOGANSPORT*    CLOUDY    79  70  73 CALM      30.11S
ROCHESTER*     CLOUDY    81  72  74 CALM      30.12S
WARSAW*        CLOUDY    79  73  83 E3        30.12S
ANGOLA*        SUNNY     82  66  57 CALM      30.13S
FORT WAYNE     CLOUDY    82  66  58 CALM      30.11S
HUNTINGTON*    PTSUNNY  N/A N/A N/A CALM      30.12R
PERU/GRISSOM   DRIZZLE   79  72  78 NE7       30.09S
MARION*        CLOUDY    80  71  74 NE6       30.11S

$$
INZ028>050-262300-
CENTRAL INDIANA

CITY           SKY/WX    TMP DP  RH WIND       PRES   REMARKS
LAFAYETTE      CLOUDY    79  73  82 NE5       30.08F
KOKOMO*        CLOUDY    81  73  78 NE7       30.09F
MUNCIE*        MOSUNNY   84  74  71 E5        30.10R
INDIANAPOLIS   CLOUDY    84  71  65 E16       30.05F

$$
MIZ043>046-050>051-056>058-064>065-071>073-077>080-262300-
SOUTHWEST LOWER MICHIGAN

CITY           SKY/WX    TMP DP  RH WIND       PRES   REMARKS
BATTLE CREEK   SUNNY     79  63  57 W6        30.14R
BENTON HARBOR  SUNNY     74  62  66 VRB6      30.13R
COLDWATER*     SUNNY     80  60  49 CALM      30.13S
HILLSDALE*     SUNNY     80  60  50 CALM      30.14R
HOLLAND        SUNNY     75  61  61 NW6       30.15R
GRAND RAPIDS   MOSUNNY   80  59  48 VRB6      30.13S
KALAMAZOO      SUNNY     83  60  45 CALM      30.13R
STURGIS*       PTSUNNY   79  65  62 N3        30.13R
THREE RIVERS*  FAIR      81  64  57 NW5       30.13S

$$
OHZ001>008-015>018-024>025-262300-
NORTHWEST OHIO

CITY           SKY/WX    TMP DP  RH WIND       PRES   REMARKS
WAUSEON*       FAIR      82  64  54 CALM      30.12R
DEFIANCE       SUNNY     85  58  39 CALM      30.12S
FINDLAY        SUNNY     85  61  44 VRB3      30.11S
TOLEDO EXPRESS SUNNY     83  61  47 NW6       30.11S
TOLEDO METCALF SUNNY     85  61  44 W5        30.11S
LIMA           SUNNY     83  69  62 NE5       30.12R

$$
AND FOR LAKE MICHIGAN COASTAL AND OPEN LAKE BUOY OBSERVATIONS

STATION/POSITION TEMP    WIND        PRES    VSBY  WAVE
                 AIR SEA DIR/SP/G                  HT/PER
                 (F)     (DEG/KT/KT) (MB)    (MI)  (FT/S)
CALUMET HARBOR    73      10/  7/ 10 1019.5F
MICHIGAN CITY     73      10/ 12/ 13   N/A
BURNS HARBOR      74      50/ 12/ 13 1020.3S
SAINT JOSEPH      74      10/ 10/ 13 1021.3R
SOUTH LAKE BUOY   71 76   60/  6/  8 1020.1F         1
4 MI NW BRIDGMAN  73 75   20/ 12/ 14 1019.8S         2/ 4
MICHIGAN CITY     74 75   40/ 10/ 12   N/A           2/ 4

$$
&&




USA.gov is the U.S. government's official web portal to all federal, state and local government web resources and services.